This is the latest recevied weather packets stored in our database for station/object KF7PIZ. If no packets are shown the sender has not sent any weather packets the latest 10 day(s).
| Time | Temp. | Humidity | Pressure | Rain* | Wind** | Luminosity | Snow |
|---|---|---|---|---|---|---|---|
| 1777258346 | 8.89° C | 50% | 1011 hPa | 0 mm | - | 0 W/m² | - |
| 1777258044 | 8.89° C | 50% | 1011.3 hPa | 0 mm | - | 0 W/m² | - |
| 1777257741 | 9.44° C | 50% | 1010.9 hPa | 0 mm | - | 2 W/m² | - |
| 1777257438 | 9.44° C | 48% | 1010.8 hPa | 0 mm | - | 3 W/m² | - |
| 1777257135 | 10° C | 47% | 1010.9 hPa | 0 mm | - | 6 W/m² | - |
| 1777256832 | 10.56° C | 44% | 1010.7 hPa | 0 mm | - | 7 W/m² | - |
| 1777256529 | 10.56° C | 41% | 1010.7 hPa | 0 mm | - | 10 W/m² | - |
| 1777256223 | 10.56° C | 40% | 1010.4 hPa | 0 mm | - | 12 W/m² | - |
| 1777255920 | 10.56° C | 41% | 1010.4 hPa | 0 mm | - | 13 W/m² | - |
| 1777255616 | 10.56° C | 40% | 1010.4 hPa | 0 mm | - | 16 W/m² | - |
| 1777255313 | 11.11° C | 40% | 1010.1 hPa | 0 mm | - | 17 W/m² | - |
| 1777255008 | 11.11° C | 37% | 1010.2 hPa | 0 mm | - | 19 W/m² | - |
| 1777254705 | 11.67° C | 36% | 1010.4 hPa | 0 mm | - | 20 W/m² | - |
| 1777254402 | 11.67° C | 35% | 1010 hPa | 0 mm | - | 21 W/m² | - |
| 1777254098 | 12.22° C | 35% | 1010 hPa | 0 mm | - | 25 W/m² | - |
| 1777253794 | 12.78° C | 34% | 1010 hPa | 0 mm | - | 29 W/m² | - |
| 1777253492 | 13.89° C | 31% | 1009.9 hPa | 0 mm | - | 29 W/m² | - |
| 1777253189 | 15° C | 31% | 1009.8 hPa | 0 mm | - | 82 W/m² | - |
| 1777252887 | 14.44° C | 32% | 1010 hPa | 0 mm | - | 35 W/m² | - |
| 1777252584 | 14.44° C | 33% | 1009.8 hPa | 0 mm | - | 42 W/m² | - |
| 1777252281 | 15.56° C | 31% | 1009.7 hPa | 0 mm | - | 113 W/m² | - |
| 1777251979 | 15° C | 32% | 1009.8 hPa | 0 mm | - | 161 W/m² | - |
| 1777251676 | 15.56° C | 30% | 1009.7 hPa | 0 mm | - | 193 W/m² | - |
| 1777251372 | 15.56° C | 28% | 1009.7 hPa | 0 mm | - | 225 W/m² | - |
| 1777251068 | 15.56° C | 27% | 1009.6 hPa | 0 mm | - | 209 W/m² | - |
* Rain latest hour (hover to see other rain measurements)
** Current wind speed in m/s (hover to see current wind gust speed)